Location: Unspecified
(0.0000°N, 0.0000°E)
Time: 03:30:01
(UTC+00:00)

Vanguard 2 - Pass Details

Date: 14 December 2017
Orbit: 552 x 2940 km, 32.9° (Epoch: 16 January)

Event Time Altitude Azimuth Distance (km) Brightness Sun altitude
Rises 06:10:15 0° 222° (SW) 6,082 11.9 3.6°
Reaches altitude 10° 06:16:35 10° 203° (SSW) 5,430 11.9 5.0°
Maximum altitude 06:26:26 17° 167° (SSE) 5,111 12.3 7.3°
Drops below altitude 10° 06:36:42 10° 131° (SE) 5,722 13.8 9.7°
Sets 06:43:38 0° 113° (ESE) 6,535 14.5 11.2°
